TimeCST,TemperatureF,Dew PointF,Humidity,Sea Level PressureIn,VisibilityMPH,Wind Direction,Wind SpeedMPH,Gust SpeedMPH,PrecipitationIn,Events,Conditions,WindDirDegrees,DateUTC
12:14 AM,55.4,42.8,63,29.89,10.0,East,4.6,-,N/A,,Overcast,90,2012-01-22 06:14:00
12:53 AM,55.0,44.1,67,29.86,10.0,East,4.6,-,N/A,,Overcast,100,2012-01-22 06:53:00
1:25 AM,55.4,44.6,67,29.85,10.0,ESE,8.1,-,N/A,,Overcast,120,2012-01-22 07:25:00
1:53 AM,55.9,46.0,69,29.85,9.0,ESE,5.8,-,N/A,,Overcast,110,2012-01-22 07:53:00
2:16 AM,55.4,46.4,72,29.85,9.0,Calm,Calm,-,N/A,,Overcast,0,2012-01-22 08:16:00
2:53 AM,55.9,48.0,75,29.84,7.0,Calm,Calm,-,N/A,,Overcast,0,2012-01-22 08:53:00
3:53 AM,55.0,50.0,83,29.83,6.0,SE,3.5,-,N/A,,Haze,130,2012-01-22 09:53:00
4:53 AM,55.0,52.0,89,29.82,4.0,Calm,Calm,-,N/A,,Overcast,0,2012-01-22 10:53:00
5:53 AM,55.9,52.0,87,29.80,4.0,East,3.5,-,N/A,,Overcast,80,2012-01-22 11:53:00
6:25 AM,55.4,53.6,94,29.81,3.0,NNW,3.5,-,N/A,,Overcast,340,2012-01-22 12:25:00
6:53 AM,55.9,54.0,93,29.81,3.0,Calm,Calm,-,N/A,,Overcast,0,2012-01-22 12:53:00
7:24 AM,55.4,55.4,100,29.81,2.0,Calm,Calm,-,N/A,,Overcast,0,2012-01-22 13:24:00
7:35 AM,55.4,55.4,100,29.82,1.5,Calm,Calm,-,N/A,,Overcast,0,2012-01-22 13:35:00
7:53 AM,55.0,55.0,100,29.81,0.5,Calm,Calm,-,N/A,Fog,Fog,0,2012-01-22 13:53:00
8:10 AM,55.4,55.4,100,29.82,0.2,Calm,Calm,-,N/A,Fog,Fog,0,2012-01-22 14:10:00
8:53 AM,55.9,55.9,100,29.82,0.2,Calm,Calm,-,N/A,Fog,Fog,0,2012-01-22 14:53:00
10:53 AM,59.0,59.0,100,29.84,0.8,Calm,Calm,-,N/A,,Overcast,0,2012-01-22 16:53:00
11:53 AM,61.0,61.0,100,29.81,0.8,SSE,5.8,-,N/A,,Overcast,150,2012-01-22 17:53:00
12:06 PM,60.8,60.8,100,29.81,1.0,SSE,3.5,-,N/A,,Overcast,160,2012-01-22 18:06:00
12:29 PM,62.6,62.6,100,29.83,1.2,NW,4.6,-,N/A,,Overcast,310,2012-01-22 18:29:00
12:53 PM,64.0,62.1,93,29.80,1.8,Calm,Calm,-,N/A,,Overcast,0,2012-01-22 18:53:00
1:13 PM,64.4,62.6,94,29.81,2.0,WNW,3.5,-,N/A,,Overcast,300,2012-01-22 19:13:00
1:57 PM,68.0,64.4,88,29.79,3.0,WSW,5.8,-,N/A,,Overcast,240,2012-01-22 19:57:00
3:02 PM,71.6,62.6,73,29.78,5.0,WSW,5.8,-,N/A,,Haze,250,2012-01-22 21:02:00
3:53 PM,73.0,62.1,68,29.76,6.0,Variable,4.6,-,N/A,,Haze,0,2012-01-22 21:53:00
4:53 PM,75.0,57.9,55,29.77,9.0,SSW,4.6,-,N/A,,Clear,210,2012-01-22 22:53:00
6:53 PM,63.0,55.0,75,29.81,10.0,Calm,Calm,-,N/A,,Clear,0,2012-01-23 00:53:00
7:53 PM,57.9,54.0,87,29.83,8.0,Calm,Calm,-,N/A,,Clear,0,2012-01-23 01:53:00
8:53 PM,62.1,57.0,84,29.86,6.0,NNW,4.6,-,N/A,,Haze,340,2012-01-23 02:53:00
9:53 PM,57.9,55.0,90,29.89,5.0,Calm,Calm,-,N/A,,Clear,0,2012-01-23 03:53:00
11:53 PM,48.9,46.9,93,29.94,4.0,SSE,4.6,-,N/A,,Clear,150,2012-01-23 05:53:00